Wind_Speed
34 35 32 28 22 20 20 18 17 18 18 17 16 14 12 10 9 8 9 8 8 8 9 8 8 8 8 8 7 6 6 5 5
42 38 35 32 29 26 23 21 20 18 18 18 18 16 14 13 11 10 8 7 9 7 8 9 9 9 8 7 8 8 9 8 7
40 39 36 35 33 31 28 26 25 22 20 18 16 16 16 15 14 15 11 11 11 9 9 10 10 10 9 7 7 8 9 10 10
29 39 32 32 35 35 33 31 29 26 24 22 21 19 18 18 17 17 17 16 15 13 13 12 12 11 9 8 9 11 11 11 11
25 49 44 42 40 39 38 36 32 29 28 26 25 23 21 21 19 19 19 18 18 18 17 16 16 16 15 14 13 15 16 16 15
22 30 39 37 41 41 39 38 37 34 32 31 29 26 25 24 24 23 23 22 19 19 19 19 20 19 18 17 16 16 18 18 18
27 39 42 20 37 41 42 42 40 39 38 36 33 30 28 28 28 27 25 24 22 21 21 20 19 19 18 19 19 19 18 20 21
4 26 23 22 25 35 44 47 42 42 43 41 39 36 34 31 30 28 28 27 26 25 24 24 24 23 24 24 23 24 22 22 23
10 10 12 18 21 25 26 38 46 45 45 44 42 39 36 36 32 31 32 31 30 29 28 28 28 28 29 29 28 26 27 27 27
17 16 18 19 20 18 20 32 41 43 47 43 42 44 39 38 36 35 36 34 34 33 33 31 31 31 34 34 32 31 32 30 31
23 25 24 22 27 17 22 31 38 42 48 46 46 47 47 38 40 39 39 34 35 33 37 34 38 39 36 38 35 34 34 33 36
26 29 29 31 35 30 10 17 27 43 39 38 40 36 43 47 48 40 40 40 40 39 41 40 38 38 39 42 44 34 33 33 32
28 29 27 30 16 26 11 12 14 14 15 13 20 36 32 30 38 45 47 46 46 43 42 47 42 44 43 45 43 41 41 40 44
27 26 25 21 21 16 15 16 13 11 16 16 12 18 32 40 21 24 30 35 39 41 37 38 35 38 38 41 38 42 44 48 43
27 28 25 22 23 26 25 22 19 19 19 19 19 18 12 13 21 23 19 19 21 28 37 36 26 32 36 24 29 28 37 30 32
33 31 28 28 27 28 28 27 25 26 26 28 24 21 23 24 24 24 20 17 15 20 18 18 20 23 22 24 38 31 28 26 32
35 35 35 32 32 32 32 29 26 26 28 29 28 29 26 25 25 25 23 20 18 20 22 22 24 26 28 27 28 25 25 25 27
36 35 35 46 36 33 31 31 30 27 26 27 28 28 28 29 29 28 26 26 26 28 29 27 28 31 31 29 30 33 33 28 26
38 35 32 44 36 32 30 31 30 28 26 25 23 25 28 28 29 31 30 30 30 29 30 32 33 34 33 33 35 35 33 35 33
33 31 31 32 30 32 32 30 31 30 31 29 28 30 29 29 32 32 33 32 32 33 36 38 36 35 34 33 34 38 40 41 43
Wind_Direction
212 210 206 201 200 198 193 194 202 212 212 204 198 200 201 195 196 194 198 203 192 208 210 207 209 212 214 216 224 235 241 239 234
220 211 210 208 200 206 205 197 197 204 214 216 208 203 205 203 198 202 190 203 210 201 221 210 220 224 223 233 243 251 257 264 264
210 211 213 214 211 209 209 207 202 202 209 214 217 208 206 202 203 199 195 196 187 201 207 218 213 217 224 222 238 253 259 259 259
225 211 218 214 214 215 213 214 213 206 211 216 217 222 219 214 209 206 208 203 203 208 210 215 221 227 232 241 246 244 247 249 256
217 185 214 220 218 220 218 217 216 217 216 217 223 224 228 231 230 227 226 226 219 212 210 214 218 223 235 246 257 261 257 255 251
224 208 199 224 206 222 225 226 222 220 223 224 221 224 229 233 235 235 236 240 238 240 237 234 233 238 244 248 247 254 258 255 255
206 210 209 191 217 224 226 228 229 228 229 231 232 228 229 234 237 239 240 241 245 247 249 250 250 250 255 258 258 259 254 252 252
222 207 178 178 207 228 234 230 231 233 234 237 238 237 237 239 241 243 245 248 250 251 253 256 258 261 262 262 262 263 266 263 261
250 244 235 207 216 226 252 224 233 229 235 238 240 241 245 244 243 247 250 252 256 258 259 258 259 256 259 263 262 262 263 265 265
242 244 252 247 236 226 229 227 229 223 236 241 239 244 248 248 245 249 253 255 259 259 259 261 258 259 264 257 259 265 266 264 264
242 246 246 253 239 227 208 215 223 234 234 241 244 242 249 241 246 251 248 255 260 259 256 261 270 268 259 257 269 263 265 267 265
240 245 247 255 258 246 216 216 228 230 229 237 238 244 248 239 243 252 252 256 256 262 257 263 264 263 264 267 275 279 259 261 263
237 248 248 245 227 234 224 196 227 224 221 245 237 233 234 254 252 247 255 259 262 262 264 271 267 266 268 273 275 280 276 273 265
231 236 239 240 232 233 248 261 255 264 273 274 271 244 231 244 242 249 259 258 261 262 267 270 261 268 278 284 285 282 276 270 269
233 233 230 228 229 235 242 245 251 246 251 256 254 272 269 260 256 256 282 273 268 271 266 269 279 279 272 299 288 271 262 264 254
232 238 236 234 232 237 243 251 252 250 239 239 242 241 248 263 258 267 278 276 281 295 293 283 279 283 282 285 278 284 288 296 292
226 231 237 240 233 234 240 243 249 243 243 241 240 241 246 246 251 255 256 273 264 268 270 273 275 275 273 277 273 274 277 285 284
228 233 235 238 233 234 235 233 232 232 236 236 240 245 247 252 253 254 257 256 256 265 271 274 276 279 283 282 279 273 273 271 268
233 236 236 227 228 231 231 228 228 233 240 238 237 241 244 249 252 254 258 259 262 263 265 269 274 273 278 279 274 272 265 258 263
228 229 227 232 232 234 238 234 238 242 243 239 238 238 240 244 248 254 257 264 267 269 274 274 276 276 274 272 268 267 266 265 268
Height
5890 5894 5896 5898 5901 5904 5907 5909 5913 5916 5918 5920 5922 5924 5926 5928 5930 5932 5935 5937 5938 5939 5939 5941 5942 5943 5943 5943 5943 5944 5944 5945 5945
5883 5889 5894 5895 5898 5901 5904 5907 5910 5913 5917 5919 5920 5922 5925 5926 5928 5930 5932 5934 5936 5937 5938 5939 5942 5942 5941 5942 5942 5943 5943 5943 5944
5878 5884 5889 5892 5895 5897 5901 5904 5906 5910 5914 5917 5920 5921 5923 5925 5927 5928 5930 5932 5934 5936 5937 5938 5939 5939 5940 5941 5941 5942 5942 5942 5942
5873 5881 5882 5888 5890 5894 5897 5900 5904 5906 5910 5914 5917 5919 5921 5923 5925 5926 5928 5930 5931 5932 5934 5936 5936 5937 5938 5938 5938 5938 5939 5940 5940
5862 5861 5875 5880 5885 5889 5892 5897 5900 5904 5907 5910 5913 5916 5919 5921 5923 5925 5926 5928 5929 5930 5932 5933 5934 5935 5935 5936 5936 5936 5936 5937 5938
5861 5863 5859 5873 5877 5883 5889 5893 5897 5899 5903 5905 5908 5912 5914 5917 5919 5920 5922 5924 5927 5928 5930 5932 5933 5934 5934 5934 5934 5934 5934 5934 5935
5858 5859 5864 5871 5875 5878 5882 5885 5889 5893 5897 5900 5903 5906 5909 5912 5915 5917 5919 5920 5923 5925 5927 5929 5930 5931 5931 5932 5932 5932 5932 5931 5931
5849 5857 5856 5861 5868 5874 5878 5880 5882 5887 5891 5894 5899 5902 5904 5906 5910 5913 5915 5917 5919 5921 5923 5924 5925 5926 5926 5926 5927 5927 5929 5928 5928
5850 5852 5856 5858 5862 5866 5866 5870 5875 5879 5883 5887 5893 5897 5900 5902 5904 5907 5909 5912 5914 5916 5917 5918 5919 5919 5919 5919 5919 5921 5921 5922 5923
5850 5852 5854 5856 5857 5857 5858 5860 5867 5871 5877 5881 5886 5888 5891 5895 5898 5901 5903 5905 5908 5909 5910 5910 5911 5912 5912 5912 5912 5914 5914 5914 5915
5845 5848 5851 5852 5853 5851 5853 5855 5860 5865 5871 5874 5877 5881 5884 5886 5889 5892 5895 5897 5900 5900 5901 5902 5902 5903 5902 5903 5902 5905 5905 5906 5906
5840 5842 5845 5848 5847 5848 5850 5852 5855 5858 5863 5865 5870 5872 5875 5877 5881 5884 5886 5888 5890 5892 5892 5894 5893 5895 5895 5897 5896 5896 5896 5897 5896
5834 5836 5840 5843 5842 5844 5844 5846 5848 5851 5855 5860 5861 5864 5867 5869 5873 5874 5877 5879 5882 5882 5884 5884 5886 5886 5887 5887 5888 5887 5888 5886 5885
5829 5831 5834 5838 5839 5842 5843 5846 5848 5850 5851 5852 5855 5858 5860 5863 5865 5868 5869 5871 5872 5874 5876 5876 5876 5877 5877 5874 5875 5876 5876 5875 5875
5822 5826 5829 5832 5835 5838 5841 5844 5845 5846 5849 5852 5854 5854 5854 5857 5860 5862 5863 5864 5864 5865 5867 5868 5869 5869 5868 5866 5865 5864 5865 5864 5863
5814 5818 5822 5825 5829 5832 5836 5839 5841 5843 5844 5846 5847 5848 5850 5852 5854 5854 5856 5857 5856 5858 5859 5860 5861 5862 5861 5860 5859 5857 5856 5856 5856
5805 5810 5814 5817 5821 5824 5828 5831 5834 5836 5839 5840 5842 5844 5845 5846 5847 5848 5848 5848 5849 5851 5853 5854 5855 5854 5854 5852 5852 5850 5848 5848 5847
5796 5801 5805 5808 5813 5816 5820 5824 5827 5830 5832 5832 5834 5835 5837 5839 5839 5841 5841 5843 5844 5845 5846 5846 5846 5846 5844 5843 5843 5842 5841 5839 5836
5788 5791 5795 5800 5805 5809 5812 5816 5819 5821 5823 5825 5826 5827 5829 5831 5832 5833 5834 5834 5836 5837 5836 5836 5835 5835 5834 5833 5832 5832 5830 5831 5828
5782 5785 5788 5792 5797 5800 5804 5808 5811 5813 5815 5817 5818 5820 5822 5824 5825 5825 5826 5825 5825 5826 5826 5825 5824 5824 5823 5822 5822 5822 5822 5821 5820